[[{"header":{"parameterUnit":"m.s-1","parameterCategory":1,"la1":30.2991,"la2":30.254,"lo1":-89.0895,"lo2":-89.0444,"dy":0.0017,"dx":0.0017,"nx":28,"ny":28,"refTime":"2024-02-23T03:00:00:Z","depth":0,"parameterNumber":2,"parameterNumberName":"U-component_of_WINDS"},"data":[0,0,0,0,0,0,0,0,0,0,0,0,0,0,0,0,0,0,0,0,0,0,0,0,0,0,0,0,0,0,0,0,0,0,0,0,0,0,0,0,0,0,0,0,0,0,0,0,0,0,0,0,0,0,0,0,0,0,3.5517,3.5518,0,3.5595,3.5596,3.5597,3.5602,3.5601,3.56,3.5599,3.568,3.5683,3.5686,0,0,0,0,0,0,0,0,0,0,0,0,0,3.5377,3.538,3.5517,3.5518,3.5519,3.5595,3.5596,3.5597,3.5602,3.5601,3.56,3.5599,3.5679,3.5683,3.5686,0,0,0,0,0,0,0,0,0,0,0,0,0,3.5445,3.538,3.5517,3.5531,3.5533,3.5594,3.5596,3.5597,3.5602,3.5601,3.5599,3.5598,3.5678,3.5682,3.5687,3.5741,0,0,3.57,3.5702,0,0,0,0,0,0,0,0,3.5441,3.545,3.5528,3.553,3.5532,3.5587,3.5576,3.5645,3.5602,3.5576,3.5599,3.5597,3.565,3.5657,3.5674,3.5744,3.5748,3.5701,3.5703,3.5705,3.5706,0,0,0,0,0,0,0,3.5436,3.5447,3.5548,3.5529,3.5532,3.5534,3.5542,3.5589,3.5619,3.5578,3.5578,3.5588,3.5651,3.567,3.5676,3.5749,3.57,3.5704,3.5707,3.5709,3.5871,3.5873,0,0,0,0,0,0,3.5428,3.5443,3.5545,3.555,3.5482,3.5538,3.5547,3.5571,3.5619,3.5625,3.5589,3.5587,3.5663,3.5671,3.5679,3.5748,3.5705,3.5709,3.5712,3.587,3.5872,3.5874,0,0,0,0,0,0,3.5425,3.5438,3.5542,3.5497,3.551,3.5542,3.5568,3.5573,3.5592,3.5627,3.5633,3.5602,3.5662,3.5673,3.5726,3.5751,3.5711,3.5715,3.5868,3.587,3.5873,3.5885,0,0,0,0,0,0,3.5421,3.5436,3.5456,3.5497,3.5513,3.5587,3.557,3.5576,3.5599,3.5599,3.5641,3.5647,3.5662,3.5719,3.5731,3.5756,3.5719,3.5866,3.5869,3.5872,3.5882,3.5887,3.5891,0,0,0,0,0,3.5416,3.5456,3.5457,3.5469,3.5538,3.5588,3.5597,3.5613,3.5601,3.5622,3.5646,3.5646,3.5746,3.5725,3.5737,3.5765,3.5864,3.5868,3.5872,3.588,3.5886,3.5891,0,0,0,0,0,0,3.5416,3.5461,3.5463,3.5516,3.5548,3.5589,3.5615,3.5619,3.5655,3.5653,3.5672,3.5682,3.5735,3.5755,3.573,3.5822,3.5804,3.5811,3.5806,3.5812,3.5817,3.5811,3.5723,0,0,0,0,0,3.5422,3.5459,3.5496,3.554,3.5556,3.5583,3.5605,3.5616,3.565,3.5663,3.569,3.5724,3.5764,3.5789,3.5827,3.5885,3.5896,3.5911,3.5916,3.5919,3.5925,3.596,3.5968,3.5886,3.5886,3.5886,0,0,3.5435,3.5465,3.5486,3.5541,3.5567,3.5606,3.5594,3.5635,3.5664,3.5669,3.5722,3.5743,3.5782,3.5839,3.5865,3.5858,3.595,3.5924,3.5926,3.593,3.5965,3.5973,3.5979,3.5888,3.5888,3.5887,0,0,3.5479,3.5504,3.5545,3.5572,3.5611,3.563,3.564,3.568,3.5695,3.5748,3.5753,3.579,3.5857,3.5885,3.5909,3.5968,3.597,3.598,3.6004,3.6039,3.6045,3.6051,3.6075,3.6082,3.5985,3.5985,3.5985,0,3.549,3.5548,3.5565,3.5607,3.5632,3.5639,3.5682,3.5707,3.5758,3.5776,3.5766,3.5853,3.588,3.5945,3.596,3.5978,3.5992,3.5975,3.6043,3.6049,3.6055,3.6077,3.6086,3.5986,3.5986,3.5986,3.5986,0,3.5561,3.5601,3.563,3.5679,3.5707,3.5749,3.5774,3.5802,3.581,3.583,3.5886,3.5919,3.5966,3.5982,3.599,3.605,3.6044,3.6039,3.6021,3.6063,3.6085,3.6093,3.5988,3.5987,3.5987,3.5987,0,0,3.5605,3.5665,3.5676,3.57,3.5746,3.5778,3.5822,3.5868,3.5892,3.5927,3.5966,3.6024,3.6021,3.6047,3.606,3.609,3.6138,3.6081,3.6083,3.6092,3.6209,3.6213,3.6223,3.614,3.6142,3.6143,3.6206,0,3.5655,3.5732,3.575,3.5817,3.5856,3.5866,3.5904,3.5938,3.5959,3.5996,3.602,3.6062,3.6053,3.6069,3.61,3.6126,3.6162,3.6121,3.6178,3.618,3.6169,3.6234,3.6238,3.6295,3.6214,3.6216,3.6217,0,3.5723,3.5761,3.5832,3.5876,3.5893,3.5927,3.5973,3.6008,3.6048,3.6061,3.6093,3.6103,3.6151,3.6132,3.6201,3.6173,3.6198,3.6214,3.6217,3.6223,3.6201,3.6243,3.6313,3.6323,3.623,3.6229,3.6228,0,3.575,3.5819,3.5871,3.5891,3.5944,3.5968,3.5991,3.603,3.6057,3.6098,3.6116,3.6162,3.6187,3.6223,3.6246,3.6229,3.6313,3.6295,3.6328,3.6327,3.6345,3.6343,3.6421,3.6359,3.6359,3.6359,3.6358,0,3.5805,3.5848,3.5885,3.5916,3.5967,3.5989,3.6038,3.6062,3.6097,3.6135,3.6146,3.6182,3.621,3.6251,3.627,3.6325,3.6336,3.635,3.6354,3.6349,3.6348,3.6366,3.6363,3.6361,3.636,3.636,3.636,0,3.5843,3.5869,3.5927,3.5973,3.5985,3.6021,3.6061,3.6094,3.6116,3.6165,3.6178,3.6213,3.6262,3.6289,3.635,3.6363,3.6425,3.6427,3.6412,3.6414,3.6445,3.6442,3.6538,3.6553,3.648,3.648,3.6481,0,3.5876,3.591,3.596,3.5987,3.6011,3.6053,3.6082,3.6106,3.6136,3.6186,3.6214,3.6264,3.6304,3.6383,3.6415,3.6463,3.6467,3.6497,3.6474,3.6469,3.6469,3.6467,3.6472,3.6501,3.6502,3.6502,3.6503,0,3.5933,3.5945,3.5986,3.6032,3.6067,3.6104,3.6142,3.6163,3.6194,3.6228,3.6278,3.631,3.6374,3.6424,3.6475,3.6501,3.6508,3.651,3.652,3.6516,3.6506,3.6514,3.6424,3.6508,3.6507,3.6507,3.6506,3.6506,3.5971,3.6003,3.6044,3.609,3.6121,3.6157,3.6191,3.6219,3.6261,3.6314,3.6327,3.6381,3.6424,3.6493,3.6521,3.6564,3.6559,3.6573,3.6577,3.658,3.6583,3.6499,3.6574,3.6574,3.6573,3.6573,3.6573,0,3.6031,3.6058,3.61,3.6153,3.619,3.6194,3.6237,3.6268,3.6315,3.6354,3.6395,3.6455,3.6504,3.6542,3.6593,3.6621,3.6626,3.6634,3.6633,3.6639,3.6584,3.657,3.6629,3.6629,3.6629,3.6629,3.6629,3.6629,3.6066,3.6121,3.6138,3.621,3.6238,3.6291,3.6315,3.6349,3.6381,3.6447,3.6488,3.6512,3.6552,3.6607,3.6654,3.6664,3.6683,3.6691,3.6701,3.6649,3.6643,3.6637,3.6625,3.6694,3.6694,3.6753,3.6754,3.6754]},{"header":{"parameterUnit":"m.s-1","parameterCategory":1,"la1":30.2991,"la2":30.254,"lo1":-89.0895,"lo2":-89.0444,"dy":0.0017,"dx":0.0017,"nx":28,"ny":28,"refTime":"2024-02-23T03:00:00:Z","depth":0,"parameterNumber":3,"parameterNumberName":"V-component_of_WINDS"},"data":[0,0,0,0,0,0,0,0,0,0,0,0,0,0,0,0,0,0,0,0,0,0,0,0,0,0,0,0,0,0,0,0,0,0,0,0,0,0,0,0,0,0,0,0,0,0,0,0,0,0,0,0,0,0,0,0,0,0,-5.3135,-5.3134,0,-5.304,-5.3039,-5.3038,-5.3029,-5.303,-5.3031,-5.3032,-5.2924,-5.292,-5.2916,0,0,0,0,0,0,0,0,0,0,0,0,0,-5.3299,-5.3296,-5.3135,-5.3134,-5.3133,-5.3041,-5.3039,-5.3038,-5.3029,-5.303,-5.3031,-5.3032,-5.2925,-5.292,-5.2916,0,0,0,0,0,0,0,0,0,0,0,0,0,-5.3218,-5.3295,-5.3136,-5.3118,-5.3115,-5.3041,-5.3039,-5.3038,-5.3028,-5.303,-5.3031,-5.3033,-5.2926,-5.2921,-5.2915,-5.2849,0,0,-5.2898,-5.2895,0,0,0,0,0,0,0,0,-5.3223,-5.3212,-5.3121,-5.3119,-5.3116,-5.3048,-5.3057,-5.2974,-5.3028,-5.3061,-5.3032,-5.3033,-5.2963,-5.2955,-5.2933,-5.2844,-5.284,-5.2897,-5.2894,-5.2891,-5.289,0,0,0,0,0,0,0,-5.3228,-5.3216,-5.3097,-5.312,-5.3116,-5.3111,-5.3101,-5.3042,-5.3004,-5.3058,-5.3057,-5.3047,-5.2962,-5.2939,-5.293,-5.2838,-5.2897,-5.2892,-5.2889,-5.2886,-5.269,-5.2688,0,0,0,0,0,0,-5.3239,-5.3221,-5.3101,-5.3095,-5.3174,-5.3107,-5.3096,-5.3068,-5.3005,-5.2997,-5.3045,-5.3047,-5.2948,-5.2937,-5.2927,-5.2845,-5.2891,-5.2886,-5.2883,-5.2692,-5.269,-5.2688,0,0,0,0,0,0,-5.3242,-5.3228,-5.3104,-5.3158,-5.3142,-5.3103,-5.3071,-5.3065,-5.3042,-5.2996,-5.2988,-5.3029,-5.2948,-5.2935,-5.2869,-5.2841,-5.2883,-5.2878,-5.2694,-5.2691,-5.2689,-5.2681,0,0,0,0,0,0,-5.3247,-5.323,-5.3206,-5.3157,-5.3139,-5.3051,-5.307,-5.3062,-5.3034,-5.3034,-5.2978,-5.297,-5.2949,-5.2878,-5.2864,-5.2834,-5.2874,-5.2696,-5.2693,-5.2689,-5.2683,-5.2678,-5.2674,0,0,0,0,0,-5.3253,-5.3206,-5.3205,-5.3191,-5.3109,-5.305,-5.3039,-5.3018,-5.3032,-5.3006,-5.2976,-5.2972,-5.2847,-5.2871,-5.2855,-5.2823,-5.2698,-5.2694,-5.269,-5.2686,-5.2679,-5.2674,0,0,0,0,0,0,-5.3248,-5.3199,-5.3198,-5.3134,-5.3097,-5.3049,-5.3016,-5.3012,-5.2967,-5.2969,-5.2942,-5.2929,-5.2865,-5.2837,-5.2865,-5.2756,-5.2773,-5.2766,-5.2776,-5.2769,-5.2765,-5.2771,-5.2869,0,0,0,0,0,-5.324,-5.32,-5.3157,-5.3105,-5.3087,-5.3055,-5.3028,-5.3016,-5.2974,-5.2957,-5.2923,-5.288,-5.2831,-5.2799,-5.2751,-5.2681,-5.2667,-5.265,-5.2646,-5.2642,-5.2635,-5.2594,-5.2586,-5.2674,-5.2674,-5.2675,0,0,-5.3222,-5.319,-5.3165,-5.3103,-5.3073,-5.3028,-5.3041,-5.2993,-5.2959,-5.2949,-5.2886,-5.2859,-5.2809,-5.2741,-5.2709,-5.2716,-5.2608,-5.2637,-5.2634,-5.2629,-5.2589,-5.2581,-5.2573,-5.2672,-5.2672,-5.2673,0,0,-5.3166,-5.3139,-5.3092,-5.3063,-5.3018,-5.2998,-5.2987,-5.294,-5.2922,-5.286,-5.2852,-5.2809,-5.2725,-5.269,-5.2662,-5.2595,-5.2588,-5.258,-5.2553,-5.2514,-5.2507,-5.2501,-5.2475,-5.2466,-5.2574,-5.2573,-5.2573,0,-5.3147,-5.3083,-5.3067,-5.302,-5.2992,-5.2986,-5.2937,-5.2908,-5.2848,-5.2827,-5.2838,-5.2734,-5.27,-5.2623,-5.2607,-5.2584,-5.2568,-5.2585,-5.251,-5.2504,-5.2497,-5.2472,-5.2463,-5.2573,-5.2573,-5.2573,-5.2573,0,-5.3062,-5.3018,-5.2985,-5.2932,-5.2901,-5.2853,-5.2827,-5.2796,-5.2787,-5.2764,-5.27,-5.266,-5.2604,-5.2585,-5.2574,-5.2506,-5.2512,-5.2517,-5.2533,-5.2488,-5.2464,-5.2455,-5.2571,-5.2572,-5.2572,-5.2572,0,0,-5.2997,-5.2939,-5.2927,-5.2903,-5.2855,-5.2818,-5.2769,-5.2719,-5.2692,-5.2652,-5.2608,-5.2539,-5.2544,-5.2511,-5.2496,-5.2462,-5.241,-5.2471,-5.2469,-5.2459,-5.233,-5.2326,-5.2315,-5.2407,-5.2405,-5.2403,-5.2334,0,-5.2934,-5.2851,-5.2836,-5.2761,-5.2719,-5.2713,-5.267,-5.2634,-5.2613,-5.2571,-5.2545,-5.2496,-5.2507,-5.2487,-5.2454,-5.2423,-5.2383,-5.2428,-5.2362,-5.236,-5.2373,-5.2303,-5.2297,-5.2234,-5.2325,-5.2323,-5.2322,0,-5.2849,-5.2811,-5.2734,-5.2692,-5.2673,-5.2636,-5.2588,-5.255,-5.2508,-5.2494,-5.2459,-5.2449,-5.2395,-5.2416,-5.234,-5.2371,-5.2343,-5.2324,-5.2321,-5.2312,-5.2336,-5.2289,-5.2213,-5.2202,-5.2307,-5.2308,-5.2309,0,-5.2808,-5.2737,-5.2681,-5.2661,-5.2611,-5.2585,-5.2562,-5.2522,-5.2493,-5.245,-5.2431,-5.2381,-5.2353,-5.2313,-5.2289,-5.2307,-5.2213,-5.2233,-5.2197,-5.2198,-5.2175,-5.2177,-5.2091,-5.2162,-5.2162,-5.2162,-5.2162,0,-5.2737,-5.269,-5.2662,-5.2628,-5.2574,-5.2556,-5.2502,-5.2479,-5.2444,-5.2403,-5.2394,-5.2354,-5.2326,-5.2281,-5.2261,-5.22,-5.2188,-5.2173,-5.2167,-5.2172,-5.2174,-5.2151,-5.2154,-5.216,-5.216,-5.2161,-5.2161,0,-5.268,-5.2661,-5.26,-5.2559,-5.2548,-5.2509,-5.2473,-5.2437,-5.2417,-5.2365,-5.2351,-5.2317,-5.2265,-5.2238,-5.2171,-5.2158,-5.2088,-5.2086,-5.2103,-5.21,-5.2066,-5.2068,-5.1961,-5.1945,-5.2028,-5.2027,-5.2027,0,-5.2636,-5.26,-5.2557,-5.2531,-5.2508,-5.2466,-5.2437,-5.2418,-5.2388,-5.2339,-5.2308,-5.2257,-5.2214,-5.213,-5.2097,-5.2046,-5.2041,-5.2008,-5.2033,-5.2039,-5.2038,-5.204,-5.2035,-5.2002,-5.2001,-5.2,-5.2,0,-5.2558,-5.2551,-5.2512,-5.2469,-5.2436,-5.2401,-5.2365,-5.2343,-5.2318,-5.2284,-5.2233,-5.22,-5.2134,-5.2082,-5.2029,-5.2001,-5.1995,-5.1993,-5.1981,-5.1984,-5.1995,-5.1987,-5.2088,-5.1994,-5.1995,-5.1995,-5.1996,-5.1996,-5.2504,-5.2472,-5.2437,-5.2394,-5.2366,-5.2334,-5.2299,-5.2276,-5.2234,-5.2182,-5.2173,-5.2117,-5.2076,-5.2005,-5.1976,-5.1931,-5.1937,-5.1921,-5.1916,-5.1912,-5.191,-5.2005,-5.1921,-5.1921,-5.1921,-5.1921,-5.1921,0,-5.2425,-5.2403,-5.2364,-5.2317,-5.2282,-5.2285,-5.2246,-5.2215,-5.2168,-5.2132,-5.2092,-5.2032,-5.1982,-5.1946,-5.1894,-5.1864,-5.186,-5.1851,-5.1851,-5.1845,-5.1908,-5.1922,-5.1855,-5.1855,-5.1855,-5.1855,-5.1855,-5.1856,-5.2379,-5.2324,-5.2313,-5.2244,-5.2221,-5.217,-5.2148,-5.2117,-5.2088,-5.2024,-5.1983,-5.1962,-5.1925,-5.1871,-5.1824,-5.1815,-5.1794,-5.1785,-5.1775,-5.1834,-5.1841,-5.1847,-5.186,-5.1782,-5.1782,-5.1716,-5.1715,-5.1715]}]]